Home   Weather   Lund   Past weeks

Flag for Sweden Past Weather in Lund, Sweden — Yesterday and Last 2 Weeks

Now
73 °F

Sunny.


Feels Like: 77 °F
Forecast: 54 / 74 °F
Wind: 10 mph from Southwest

Location: Malmo / Sturup

Current Time: May 27, 2017 at 3:45:51 pm

Latest Report: May 27, 2017 at 2:50 pm


Visibility: 10 mi

Pressure: 30.21 "Hg

Humidity: 53%

Dew Point: 55 °F

Location of LundLocation

Past Weather in Lund — Graph

°F

Lund Temperature Yesterday

Maximum temperature yesterday: 73 °F (at 3:20 pm)
Minimum temperature yesterday: 50 °F (at 12:50 am)
Average temperature yesterday: 62 °F

High & Low Weather Summary for the Past Weeks

 TemperatureHumidityPressure
High75 °F (May 19, 1:50 pm)100% (May 15, 5:20 am)30.42 "Hg (May 15, 5:20 am)
Low41 °F (May 23, 2:20 am)44% (May 26, 6:50 pm)29.80 "Hg (May 12, 2:20 pm)
Average57 °F75%30.08 "Hg
* Reported May 12 2:20 pm — May 27 2:50 pm, Lund. Weather by CustomWeather, © 2017

Note: Actual official high and low records may vary slightly from our data, if they occured in-between our weather recording intervals... More about our weather records

Advertising

Lund Weather History for the Previous 24 Hours

Scroll right to see more
 ConditionsComfort  
Time TempWeatherWind HumidityBarometerVisibility
2:50 pm
Sat, May 27
73 °FSunny.10 mph53%30.21 "Hg10 mi
2:20 pm73 °FSunny.12 mph50%30.21 "Hg10 mi
1:50 pm73 °FSunny.10 mph50%30.21 "Hg10 mi
1:20 pm72 °FSunny.10 mph53%30.21 "Hg10 mi
12:50 pm72 °FSunny.10 mph57%30.21 "Hg10 mi
12:20 pm72 °FSunny.10 mph61%30.21 "Hg10 mi
11:50 am70 °FSunny.9 mph60%30.21 "Hg10 mi
11:20 am70 °FSunny.9 mph60%30.21 "Hg10 mi
10:50 am70 °FSunny.10 mph57%30.21 "Hg10 mi
10:20 am70 °FSunny.9 mph57%30.21 "Hg10 mi
9:50 am70 °FSunny.8 mph57%30.21 "Hg10 mi
9:20 am68 °FSunny.7 mph56%30.21 "Hg10 mi
8:50 am68 °FPassing clouds.5 mph56%30.21 "HgN/A
8:20 am64 °FSunny.2 mph68%30.21 "Hg10 mi
7:50 am63 °FSunny.No wind77%30.21 "Hg10 mi
7:20 am59 °FSunny.No wind88%30.21 "Hg10 mi
6:50 am55 °FSunny.No wind94%30.21 "Hg10 mi
6:20 am52 °FSunny.No wind94%30.21 "Hg10 mi
5:50 am50 °FSunny.1 mph94%30.21 "Hg10 mi
5:20 am46 °FSunny.3 mph93%30.21 "Hg10 mi
4:50 am46 °FSunny.2 mph100%30.21 "Hg10 mi
4:20 am48 °FClear.1 mph94%30.18 "Hg10 mi
3:50 am48 °FClear.1 mph94%30.18 "Hg10 mi
3:20 am48 °FClear.3 mph94%30.18 "Hg10 mi
2:50 am48 °FClear.No wind94%30.18 "Hg10 mi
2:20 am48 °FClear.3 mph94%30.18 "Hg10 mi
1:50 am48 °FClear.2 mph94%30.18 "Hg10 mi
12:50 am52 °FClear.2 mph88%30.18 "Hg10 mi
12:20 am54 °FClear.3 mph88%30.18 "Hg10 mi
11:50 pm
Fri, May 26
55 °FClear.5 mph82%30.18 "Hg10 mi
11:20 pm55 °FClear.3 mph77%30.15 "Hg10 mi
10:50 pm57 °FClear.5 mph72%30.15 "Hg10 mi
10:20 pm59 °FClear.6 mph68%30.15 "Hg10 mi
9:50 pm59 °FClear.8 mph68%30.15 "Hg10 mi
9:20 pm63 °FSunny.10 mph64%30.15 "Hg10 mi
8:50 pm64 °FSunny.6 mph64%30.12 "Hg10 mi
8:20 pm68 °FSunny.8 mph60%30.12 "Hg10 mi
7:50 pm70 °FSunny.9 mph57%30.12 "Hg10 mi
6:50 pm73 °FSunny.10 mph44%30.12 "Hg10 mi
5:20 pm73 °FSunny.13 mph47%30.12 "Hg10 mi
4:50 pm73 °FSunny.13 mph50%30.12 "Hg10 mi
4:20 pm73 °FSunny.12 mph47%30.12 "Hg10 mi
3:50 pm73 °FPassing clouds.10 mph50%30.12 "HgN/A
3:20 pm73 °FSunny.10 mph50%30.12 "Hg10 mi
Weather by CustomWeather, © 2017

See weather overviewHow to use our weather pages